Merimbula Observation History
Time Wind Speed Temp Pressure Rel. Hum Rain
05/10:30pm SW 2-5 kts 4.7°c 1027.7 hPa 99% 0.0mm
05/10:00pm SW 5-6 kts 4.8°c 1027.8 hPa 99% 0.0mm
05/09:30pm SW 4-5 kts 4.9°c 1027.8 hPa 99% 0.0mm
05/09:00pm SW 4-5 kts 5.0°c 1027.8 hPa 99% 0.0mm
05/08:30pm WSW 3-4 kts 5.1°c 1027.8 hPa 99% 0.0mm
05/08:00pm SW 3-4 kts 5.0°c 1027.9 hPa 97% 0.0mm
05/07:30pm WSW 3-4 kts 5.1°c 1027.6 hPa 96% 0.0mm
05/07:00pm CALM 0 kts 5.6°c 1027.5 hPa 94% 0.0mm
05/06:30pm WSW 3 kts 6.3°c 1027.2 hPa 91% 0.0mm
05/06:00pm NW 3-5 kts 7.3°c 1026.9 hPa 90% 0.0mm
05/05:30pm CALM 0 kts 8.2°c 1026.5 hPa 86% 0.0mm
05/05:00pm CALM 0 kts 9.5°c 1026.3 hPa 82% 0.0mm
05/04:30pm CALM 0 kts 11.8°c 1026.0 hPa 71% 0.0mm
05/04:00pm NE 3-5 kts 13.3°c 1026.0 hPa 64% 0.0mm
05/03:30pm ENE 3-6 kts 14.0°c 1026.0 hPa 62% 0.0mm
05/03:00pm E 4-6 kts 14.6°c 1026.1 hPa 62% 0.0mm
05/02:30pm E 5-8 kts 14.2°c 1026.0 hPa 63% 0.0mm
05/02:00pm E 6-8 kts 14.7°c 1026.2 hPa 61% 0.0mm
05/01:30pm E 5-7 kts 14.7°c 1026.4 hPa 60% 0.0mm
05/01:00pm E 5-9 kts 14.7°c 1026.8 hPa 58% 0.0mm
05/12:30pm ENE 5-8 kts 14.5°c 1027.2 hPa 58% 0.0mm
05/12:00pm E 5-8 kts 14.5°c 1027.9 hPa 65% 0.0mm
05/11:30am E 5-7 kts 13.7°c 1028.7 hPa 64% 0.0mm
05/11:00am CALM 0 kts 14.1°c 1029.1 hPa 60% 0.0mm
05/10:30am CALM 0 kts 13.3°c 1029.3 hPa 63% 0.0mm
05/10:00am CALM 0 kts 11.2°c 1029.7 hPa 70% 0.0mm
05/09:30am NW 3-4 kts 9.5°c 1029.8 hPa 85% 0.0mm
05/09:00am SSW 1-3 kts 6.0°c 1029.8 hPa 97% 0.0mm
05/08:30am SW 1-4 kts 5.1°c 1029.9 hPa 99% 0.0mm
05/08:00am SSW 4-6 kts 2.8°c 1030.1 hPa 99% 0.0mm
05/07:30am SW 4-5 kts 1.8°c 1029.8 hPa 99% 0.0mm
05/07:00am SW 4-5 kts 1.8°c 1029.7 hPa 99% 0.0mm
05/06:30am SW 4-5 kts 1.7°c 1029.5 hPa 99% 0.0mm
05/06:00am SSW 6-7 kts 2.0°c 1029.6 hPa 99% 0.0mm
05/05:30am W 4-6 kts 2.2°c 1029.6 hPa 99% 0.0mm
05/05:00am SW 4-5 kts 2.0°c 1029.7 hPa 99% 0.0mm
05/04:30am SW 4-5 kts 2.1°c 1029.9 hPa 99% 0.0mm
05/04:00am SW 5-6 kts 2.4°c 1029.9 hPa 99% 0.0mm
05/03:30am SSW 5 kts 2.3°c 1030.1 hPa 99% 0.0mm
05/03:00am SW 4-5 kts 2.4°c 1030.3 hPa 99% 0.0mm
05/02:30am SW 4-5 kts 2.4°c 1030.4 hPa 99% 0.0mm
05/02:00am SW 5 kts 2.8°c 1030.7 hPa 99% 0.0mm
05/01:30am SW 4-5 kts 2.6°c 1030.8 hPa 99% 0.0mm
05/01:00am SW 4-5 kts 3.0°c 1030.9 hPa 99% 0.0mm
05/12:30am SSW 4-5 kts 3.1°c 1031.2 hPa 99% 0.0mm
05/12:00am SW 4-5 kts 3.4°c 1031.2 hPa 99% 0.0mm
Time Wind Speed Temp Pressure Rel. Hum Rain
04/11:30pm SSW 4-5 kts 3.5°c 1031.6 hPa 99% 0.0mm
04/11:00pm SW 5 kts 3.7°c 1031.8 hPa 99% 0.0mm
04/10:30pm CALM 0-1 kts 3.5°c 1031.8 hPa 96% 0.0mm
04/10:00pm CALM 0-1 kts 3.9°c 1031.9 hPa 97% 0.0mm
04/09:30pm SW 3-4 kts 4.2°c 1032.0 hPa 96% 0.0mm
04/09:00pm SSW 3-5 kts 4.6°c 1032.2 hPa 95% 0.0mm
04/08:30pm SSW 3-4 kts 4.7°c 1032.2 hPa 94% 0.0mm
04/08:00pm CALM 0 kts 5.4°c 1032.2 hPa 91% 0.0mm
04/07:30pm SW 3 kts 6.3°c 1032.3 hPa 87% 0.0mm
04/07:00pm NNW 5-7 kts 8.1°c 1032.1 hPa 89% 0.0mm
04/06:30pm CALM 0 kts 7.4°c 1032.0 hPa 84% 0.0mm
04/06:00pm CALM 0 kts 8.7°c 1031.5 hPa 77% 0.0mm
04/05:30pm SSW 3-4 kts 10.1°c 1031.2 hPa 67% 0.0mm
04/05:00pm SSE 6-10 kts 12.2°c 1031.2 hPa 63% 0.0mm
04/04:30pm SSE 7-11 kts 13.4°c 1031.0 hPa 61% 0.0mm
04/04:00pm SE 3-5 kts 14.7°c 1031.0 hPa 57% 0.0mm
04/03:30pm SSW 5-7 kts 15.4°c 1030.8 hPa 50% 0.0mm
04/03:00pm SSW 6-9 kts 15.4°c 1030.9 hPa 50% 0.0mm
04/02:30pm S 7-10 kts 15.2°c 1031.0 hPa 49% 0.0mm
04/02:00pm SSW 5-9 kts 15.9°c 1031.3 hPa 48% 0.0mm
04/01:30pm SSW 6-10 kts 15.6°c 1031.5 hPa 49% 0.0mm
04/01:00pm SSW 7-12 kts 15.7°c 1031.7 hPa 50% 0.0mm
04/12:30pm SSW 7-13 kts 15.4°c 1032.0 hPa 51% 0.0mm
04/12:00pm SW 8-13 kts 14.9°c 1032.4 hPa 50% 0.0mm
04/11:30am SW 6-11 kts 15.2°c 1032.7 hPa 52% 0.0mm
04/11:00am WSW 7-12 kts 14.8°c 1033.2 hPa 53% 0.0mm
04/10:30am W 8-11 kts 14.3°c 1033.5 hPa 53% 0.0mm
04/10:00am W 10-15 kts 12.9°c 1033.6 hPa 56% 0.0mm
04/09:30am W 9-14 kts 12.0°c 1033.6 hPa 58% 0.0mm
04/09:00am W 9-14 kts 11.0°c 1033.5 hPa 61% 0.0mm
04/08:30am W 11-15 kts 9.9°c 1033.5 hPa 65% 0.0mm
04/08:00am W 8-13 kts 8.7°c 1033.3 hPa 70% 0.0mm
04/07:30am W 7-10 kts 7.8°c 1033.0 hPa 73% 0.0mm
04/07:00am W 9-14 kts 8.1°c 1032.8 hPa 72% 0.0mm
04/06:30am W 9-12 kts 7.9°c 1032.7 hPa 74% 0.0mm
04/06:00am W 8-11 kts 7.8°c 1032.4 hPa 76% 0.0mm
04/05:30am W 7-11 kts 8.0°c 1032.1 hPa 76% 0.0mm
04/05:00am W 9-13 kts 7.9°c 1031.8 hPa 78% 0.0mm
04/04:30am W 7-9 kts 7.3°c 1031.7 hPa 83% 0.0mm
04/04:00am W 7-9 kts 6.8°c 1031.6 hPa 91% 0.0mm
04/03:30am SW 5-6 kts 5.9°c 1031.6 hPa 94% 0.0mm
04/03:00am SW 4-5 kts 6.7°c 1031.6 hPa 91% 0.0mm
04/02:30am WSW 3-4 kts 7.7°c 1031.6 hPa 85% 0.0mm
04/02:00am WSW 5-8 kts 8.9°c 1031.6 hPa 79% 0.0mm
04/01:30am WSW 6-9 kts 9.5°c 1031.4 hPa 79% 0.0mm
04/01:00am W 6-8 kts 9.7°c 1031.4 hPa 79% 0.0mm
04/12:30am WSW 6-10 kts 9.9°c 1031.5 hPa 78% 0.0mm
04/12:00am SW 6-10 kts 9.6°c 1031.5 hPa 80% 0.0mm
Time Wind Speed Temp Pressure Rel. Hum Rain
03/11:30pm WSW 5-7 kts 8.8°c 1031.6 hPa 80% 0.0mm
03/11:00pm W 5-7 kts 8.8°c 1031.5 hPa 83% 0.0mm
03/10:30pm W 5-6 kts 8.7°c 1031.3 hPa 81% 0.0mm
03/10:00pm SW 4-7 kts 9.9°c 1031.2 hPa 78% 0.0mm
03/09:30pm WSW 6-10 kts 10.7°c 1031.0 hPa 73% 0.0mm
03/09:00pm WSW 8-13 kts 11.3°c 1030.8 hPa 70% 0.0mm
03/08:30pm WSW 6-10 kts 11.3°c 1030.6 hPa 71% 0.0mm
03/08:00pm SW 7-10 kts 11.6°c 1030.3 hPa 73% 0.0mm
03/07:30pm WSW 5-9 kts 11.4°c 1029.9 hPa 75% 0.0mm
03/07:00pm SW 5-7 kts 11.3°c 1029.5 hPa 78% 0.0mm
03/06:30pm SW 5-8 kts 11.6°c 1029.3 hPa 75% 0.0mm
03/06:00pm SW 7-14 kts 11.6°c 1028.6 hPa 74% 0.0mm
03/05:30pm SW 7-12 kts 11.7°c 1028.1 hPa 71% 0.0mm
03/05:00pm WSW 7-12 kts 11.8°c 1027.6 hPa 69% 0.0mm
03/04:30pm WSW 9-15 kts 11.9°c 1027.3 hPa 70% 0.0mm
03/04:00pm SW 11-19 kts 12.3°c 1026.9 hPa 70% 0.0mm
03/03:30pm SW 11-16 kts 12.6°c 1026.5 hPa 72% 0.0mm
03/03:00pm SW 9-19 kts 12.6°c 1025.9 hPa 73% 0.0mm
03/02:30pm SSW 15-24 kts 12.6°c 1025.6 hPa 73% 0.0mm
03/02:00pm SW 12-22 kts 14.3°c 1024.9 hPa 60% 0.0mm
03/01:30pm SW 13-26 kts 16.2°c 1024.2 hPa 49% 0.0mm
03/01:05pm SSW 15-27 kts 15.6°c 1024.1 hPa 50% 0.0mm
03/01:00pm SSW 14-27 kts 15.9°c 1024.0 hPa 48% 0.0mm
03/12:49pm SSW 15-26 kts 16.1°c 1023.9 hPa 48% 0.0mm
03/12:30pm SW 11-17 kts 16.3°c 1023.7 hPa 48% 0.0mm
03/12:00pm SW 11-19 kts 15.5°c 1023.6 hPa 52% 0.0mm
03/11:30am SW 14-23 kts 14.9°c 1023.6 hPa 56% 0.0mm
03/11:00am SW 12-18 kts 14.1°c 1023.5 hPa 60% 0.0mm
03/10:33am SW 15-28 kts 14.6°c 1023.5 hPa 57% 0.0mm
03/10:30am SW 14-28 kts 14.3°c 1023.3 hPa 57% 0.0mm
03/10:00am SW 10-17 kts 14.3°c 1022.9 hPa 58% 0.0mm
03/09:30am WSW 9-14 kts 14.2°c 1022.9 hPa 57% 0.0mm
03/09:00am WSW 12-21 kts 13.7°c 1022.1 hPa 58% 0.0mm
03/08:30am WSW 12-21 kts 13.1°c 1021.6 hPa 59% 0.0mm
03/08:00am WSW 12-22 kts 12.5°c 1021.2 hPa 63% 0.0mm
03/07:30am WSW 10-17 kts 12.1°c 1020.6 hPa 64% 0.0mm
03/07:00am SW 10-19 kts 12.6°c 1019.9 hPa 61% 0.0mm
03/06:30am SW 9-17 kts 12.6°c 1019.7 hPa 63% 0.0mm
03/06:00am SW 6-14 kts 11.9°c 1018.5 hPa 66% 0.0mm
03/05:30am SW 6-12 kts 12.1°c 1017.7 hPa 68% 0.0mm
03/05:00am SW 7-13 kts 11.6°c 1017.1 hPa 73% 0.0mm
03/04:30am SSW 7-11 kts 11.3°c 1017.1 hPa 81% 0.0mm
03/04:00am S 4-6 kts 11.0°c 1016.4 hPa 77% 0.0mm
03/03:30am WSW 5-6 kts 11.7°c 1016.2 hPa 69% 0.0mm
03/03:00am W 8-12 kts 12.7°c 1015.7 hPa 59% 0.0mm
03/02:30am W 11-17 kts 12.9°c 1015.2 hPa 57% 0.0mm
03/02:00am W 13-19 kts 13.0°c 1015.3 hPa 56% 0.0mm
03/01:30am W 13-19 kts 12.8°c 1015.3 hPa 58% 0.0mm
03/01:00am W 13-20 kts 13.1°c 1014.9 hPa 58% 0.0mm
03/12:30am W 13-22 kts 13.1°c 1014.9 hPa 59% 0.0mm
03/12:00am WSW 9-18 kts 11.6°c 1015.0 hPa 73% 0.0mm